Вернуться в каталог

STARLINK-32284

АктивенСвязьVLEO
NORAD 61005·PAYLOAD·🇺🇸 United States

Запущен Sep 5, 2024 с Cape Canaveral Space Force Station

Loading…

Ближайшие Пролёты (ближайшие 24 часа)

TLE

СвежийSource: CelesTrak SupGP

Эпоха: Sep 15, 2026, 03:11 UTC

1 61005C 24158R   26258.13312500 -.00019070  00000+0 -56335-3 0  2581
2 61005  53.1573 262.4638 0001417  85.4248 144.2883 15.34403973    13

Отслеживайте STARLINK-32284 в реальном времени с AllMySat

Download on the App Store